{"data":{"norad_id":68899,"epoch":"2026-09-20T00:18:04.819392Z","epoch_age_seconds":57526,"freshness":"FRESH","line1":"1 68899U 26097E   26263.01255578  .00007935  00000+0  24782-3 0  9995","line2":"2 68899  97.2889  97.1078 0001206  66.3136 293.8233 15.33451559 22017","mean_motion":15.33451559,"eccentricity":0.0001206,"inclination_deg":97.2889,"raan_deg":97.1078,"arg_perigee_deg":66.3136,"mean_anomaly_deg":293.8233,"bstar":0.00024782,"rev_number":2201,"period_min":93.905802993807,"perigee_km":464.69831410279,"apogee_km":466.34900505388,"semimajor_km":6843.6606595783,"source":"CELESTRAK","updated_at":"2026-09-20T09:00:44.046327Z"}}